Location: Caltech
(34.1382°N, 118.1253°W)
Time: 07:26:38
(UTC-07:00)

Tiros 1 despin weight - Visible Passes

Search period start: 27 March 2017 00:00
Search period end: 06 April 2017 00:00
Orbit: 596 x 644 km, 48.2° (Epoch: 25 March)

Date Brightness Start Highest point End Pass type
(mag) Time Alt. Az. Time Alt. Az. Time Alt. Az.
27 Mar ? 04:36:35 20° N 04:36:35 20° N 04:39:24 10° NNE visible
27 Mar ? 06:16:56 10° NNW 06:18:58 13° N 06:21:01 10° NNE visible
28 Mar ? 04:52:44 15° NNW 04:53:35 15° NNW 04:56:14 10° NNE visible
29 Mar ? 03:31:47 12° NNE 03:31:47 12° NNE 03:32:08 10° NNE visible
29 Mar ? 05:09:04 10° NNW 05:11:12 13° N 05:13:20 10° NNE visible
30 Mar ? 03:47:54 14° NNE 03:47:54 14° NNE 03:48:55 10° NNE visible
30 Mar ? 05:26:44 10° NNW 05:28:51 13° N 05:31:00 10° NNE visible
31 Mar ? 04:04:01 14° N 04:04:01 14° N 04:05:50 10° NNE visible
31 Mar ? 05:43:49 10° NNW 05:46:29 15° NNE 05:49:09 10° NE visible
01 Apr ? 04:20:10 12° NNW 04:21:06 13° N 04:23:10 10° NNE visible
01 Apr ? 06:00:39 10° NNW 06:04:00 21° NNE 06:07:22 10° ENE visible
02 Apr ? 04:36:24 10° NNW 04:38:44 14° N 04:41:05 10° NE visible
03 Apr ? 03:15:27 10° NNE 03:15:27 10° NNE 03:15:32 10° NNE visible
03 Apr ? 04:53:20 10° NNW 04:56:20 17° NNE 04:59:19 10° ENE visible
04 Apr ? 03:31:44 13° NNE 03:31:44 13° NNE 03:33:07 10° NNE visible
04 Apr ? 05:10:07 10° NNW 05:13:48 25° NNE 05:17:27 10° E visible
05 Apr ? 03:48:06 15° N 03:48:36 15° NNE 03:51:14 10° NE visible
05 Apr ? 05:26:55 10° NW 05:31:07 40° NNE 05:35:17 10° ESE visible
